sat.trackr.live / text

‹ back to catalog

STARLINK-32169

NORAD 60589 · 2024-150G

PAYLOAD ACTIVE UNKNOWN

§ Identity

Operator
Country
US
Launch date
2024-08-20
Launch site
AFETR
Launch vehicle
Mass (kg)
RCS (m²)

Purposes: comms

External: N2YO · Heavens-Above · Gunter

§ Orbital elements

Epoch: 2026-05-25T03:44:45.662784Z

Period
94.11 min
Inclination
53.1603°
Eccentricity
0.0001096
Mean motion
15.30194806 rev/d
Perigee alt
474.5 km
Apogee alt
476.0 km
Semi-major
6,853.4 km
B*
3.3448e-5
RAAN
312.2105°
Arg perigee
90.9604°
Mean anomaly
269.1522°
Rev number
9,974

§ Raw data

STARLINK-321691 60589U 24150G   26145.15608406  .00000632  00000+0  33448-4 0  99942 60589  53.1603 312.2105 0001096  90.9604 269.1522 15.30194806 99749

JSON: /api/v1/satellites/60589 · /tle

For live sub-satellite position, see the globe view (requires WebGL).

§ Visibility from observer

Set your observer location to see the next 7 days of passes ≥ 10°. The values pass through the URL so the page stays shareable.

No JS? Fill the form by hand. The geolocation button needs JavaScript.